Location: Capelle
(50.3413°N, 1.9974°E)
Time: 22:30:54
(UTC+00:00)

Cosmos 1697 Rocket - Pass Details

Date: 12 January 2026
Orbit: 830 x 844 km, 71.0° (Epoch: 7 February)

Event Time Altitude Azimuth Distance (km) Brightness Sun altitude
Rises 18:50:11 0° 332° (NNW) 3,406 6.1 -24.2°
Reaches altitude 10° 18:52:49 10° 341° (NNW) 2,470 5.3 -24.7°
Enters shadow 18:56:34 33° 14° (NNE) 1,396 3.6 -25.3°
